Regional Weather Roundup
Issued by NWS

Home | Current Version | Previous Version | Text Only | Print | Product List | Glossary Off
Versions: 1 2 3 4 5 6 7 8 9 10 11 12 13 14 15 16 17 18 19 20 21 22 23 24 25 26 27 28 29 30 31 32 33 34 35 36 37 38 39 40 41 42 43 44 45 46 47 48 49 50

000
ASUS45 KTFX 070010
RWRMT
MONTANA REGIONAL WEATHER ROUNDUP
NATIONAL WEATHER SERVICE GREAT FALLS MT
600 PM MDT MON JUL 06 2015

NOTE: "FAIR" INDICATES FEW OR NO CLOUDS BELOW 12000 FEET WITH NO
SIGNIFICANT WEATHER AND/OR OBSTRUCTIONS TO VISIBILITY.

MTZ001>007-043-070100-
WEST OF THE DIVIDE

CITY           SKY/WX    TMP DP  RH WIND       PRES   REMARKS
KALISPELL      CLEAR     80  37  21 SE10      30.04F
MISSOULA       SUNNY     84  26  12 N12       30.05F
BUTTE          SUNNY     80  39  23 NW15      30.13S
MULLAN PASS    MOSUNNY   73  35  25 VRB5      30.21F
DEER LODGE       N/A     79  39  24 N13G22    30.12F
EUREKA           N/A     84  41  21 S3        30.00F
HAMILTON         N/A     81  45  28 N13       30.03F
LIBBY            N/A     86  43  22 W3        30.00F
PLAINS           N/A     87  42  20 CALM      30.02F
RONAN            N/A     80  43  27 W3        30.11F
THOMPSON FALLS   N/A     89  40  18 SE3       30.03F
$$

MTZ008-052>055-070100-
SOUTHWEST MONTANA

CITY           SKY/WX    TMP DP  RH WIND       PRES   REMARKS
BOZEMAN        SUNNY     82  40  22 E5        30.08F
DILLON         SUNNY     83  46  27 NE9       30.08F
W YELLOWSTONE  CLOUDY    66  52  59 CALM      30.21F
THREE FORKS      N/A     80  51  36 E5        30.07F
$$

MTZ009-010-012-014-046-048-049-054-070100-
EAST SLOPES AND CENTRAL MONTANA

CITY           SKY/WX    TMP DP  RH WIND       PRES   REMARKS
CUT BANK       SUNNY     73  39  29 SE6       30.10F
GREAT FALLS    SUNNY     73  49  42 NE5       30.10F
MALMSTROM AFB  SUNNY     73  48  41 NE5       30.10F
HELENA         SUNNY     80  49  33 N3        30.06F
CONRAD           N/A     72  54  53 CALM      30.13F
$$

MTZ011-013-016-021-045-047-050-051-070100-
NORTH CENTRAL MONTANA

CITY           SKY/WX    TMP DP  RH WIND       PRES   REMARKS
HAVRE          SUNNY     75  44  33 VRB5      30.10F
LEWISTOWN      SUNNY     72  46  39 E6        30.14F
CHINOOK          N/A     73  46  38 NE6       30.10F
FORT BENTON      N/A     73  46  38 NE5       30.10F
$$

MTZ017>020-022>027-061-062-070100-
NORTHEAST MONTANA

CITY           SKY/WX    TMP DP  RH WIND       PRES   REMARKS
GLASGOW        SUNNY     74  41  30 VRB6      30.13F
JORDAN           N/A     75  44  33 N5        30.13F
SIDNEY         SUNNY     72  48  43 N6        30.16F
WOLF POINT     MOSUNNY   74  45  35 VRB3      30.14F
MALTA            N/A     77  45  32 E6        30.08F
PLENTYWOOD       N/A     70  50  49 SE3       30.16S
POPLAR           N/A     73  48  40 CALM      30.15F
SCOBEY           N/A     71  43  36 CALM      30.14F
$$

MTZ028>42-056>058-070100-
SOUTHCENTRAL AND SOUTHEAST MONTANA

CITY           SKY/WX    TMP DP  RH WIND       PRES   REMARKS
BAKER          MOSUNNY   73  47  39 NE5       30.18F
BILLINGS       MOSUNNY   73  47  39 NE10      30.15F
LIVINGSTON     SUNNY     77  49  37 E14       30.11F
MILES CITY     PTSUNNY   73  46  38 CALM      30.14F
EKALAKA          N/A     69  45  42 W2        30.16F
FORSYTH          N/A     73  46  38 E6        30.14F
LAUREL           N/A     74  47  38 NE9       30.12F
ROUNDUP          N/A     73  42  32 NE2       30.05F
$$

REGIONAL REPORTS...DAKOTAS

CITY           SKY/WX    TMP DP  RH WIND       PRES   REMARKS
WILLISTON      MOSUNNY   72  47  40 N8        30.17F
MINOT          MOSUNNY   67  45  45 N12       30.16F
DICKINSON      MOSUNNY   68  51  54 NE12      30.16S HAZE
BEACH          FAIR      68  48  49 NE9       30.18S
CROSBY         FAIR      66  45  45 N6        30.18F
BISMARCK       PTSUNNY   68  52  56 NE12      30.15S HAZE
GRAND FORKS    MOSUNNY   64  47  53 N18       30.12R
FARGO          PTSUNNY   64  48  56 N12       30.10S
BUFFALO SD       N/A     71  44  37 NW10      30.12F
RAPID CITY     CLOUDY    69  53  56 N6        30.18F
$$

REGIONAL REPORTS...WYOMING/IDAHO/WASHINGTON

CITY           SKY/WX    TMP DP  RH WIND       PRES   REMARKS
GILLETTE       MOSUNNY   68  53  58 NE6       30.21F
SHERIDAN       PTSUNNY   67  54  63 S5        30.20F
BUFFALO WY     PTSUNNY   64  54  69 E7        30.24F
CODY           MOSUNNY   70  50  49 S5        30.19F
YELLOWSTONE LA   N/A     62  46  55 W8        30.32S
IDAHO FALLS    MOSUNNY   75  53  46 N6        30.10F
SALMON         MOSUNNY   88  39  18 N13G21    29.96S
BOISE          MOSUNNY   91  43  18 W10       29.96F
SPOKANE        PTSUNNY   92  39  15 E9        29.96F
$$

REGIONAL REPORTS...ALBERTA

CITY           SKY/WX    TMP DP  RH WIND       PRES   REMARKS
EDMONTON       MOSUNNY   73  43  33 W5        30.02F
CALGARY        CLOUDY    72  46  40 SE9       30.05F
LETHBRIDGE     PTSUNNY   75  48  38 SE9       30.03F
MEDICINE HAT   PTSUNNY   75  41  29 W7        30.06F
WATERTON GATE    N/A     75  45  33 SW7         N/A
CARDSTON         N/A     75  54  46 SE7         N/A
MILK RIVER       N/A     73  45  35 S12         N/A
ONEFOUR          N/A     72  39  30 SE8         N/A
$$

REGIONAL REPORTS...SASKATCHEWAN

CITY           SKY/WX    TMP DP  RH WIND       PRES   REMARKS
SWIFT CURRENT  SUNNY     70  46  43 S9        30.12F
REGINA         PTSUNNY   70  43  37 W6        30.15F
SASKATOON      MOSUNNY   72  45  37 W12       30.11F
CYPRESS HILLS    N/A     64  41  42 S6          N/A
VAL MARIE        N/A     72  39  30 SW6         N/A
ROCKGLEN         N/A     66  46  48 E2          N/A
$$


USA.gov is the U.S. government's official web portal to all federal, state and local government web resources and services.